C/2021 Q6 ( PanSTARRS )

Japanese version
Home page
Updated on September 11, 2021

---------------------------------------------------------------------

* Profile

Discovery Date August 22, 2021
Magnitude 22.2 mag
Discoverer Pan-STARRS 1 telescope (Haleakala)

* Orbital Elements

Epoch 2024 Mar. 31.0 TT = JDT 2460400.5                                         
T 2024 Mar. 24.80955 TT                                 Rudenko                 
q   8.7102545            (2000.0)            P               Q                  
z  -0.0000528      Peri.  140.99295     +0.96883252     -0.10173225             
 +/-0.0000132      Node   133.53657     -0.21686736     -0.78897580             
e   1.0004601      Incl.  161.84654     +0.11971670     -0.60594368             
From 48 observations 2021 Jan. 2-Sept. 7, mean residual 0".2.                   

* Magnitudes Graph

        m1 = 5.5 + 5 log d + 10.0 log r

---------------------------------------------------------------------

The orbital elements are published on M.P.E.C. 2021-R167.
The magnitudes graphs are made with Comet for Windows.

---------------------------------------------------------------------

Copyright(C) Seiichi Yoshida (comet@aerith.net). All rights reserved.